Location: Red Deer
(52.2681°N, 113.8112°W)
Time: 15:30:48
(UTC-06:00)

Envisat - Pass Details

Date: 27 April 2024
Orbit: 762 x 764 km, 98.3° (Epoch: 27 May)

Event Time Altitude Azimuth Distance (km) Brightness Sun altitude
Rises 05:11:34 0° 14° (NNE) 3,241 7.1 -8.7°
Reaches altitude 10° 05:13:53 10° 15° (NNE) 2,310 6.3 -8.4°
Maximum altitude 05:18:59 89° 104° (ESE) 771 3.1 -7.8°
Drops below altitude 10° 05:24:03 10° 196° (SSW) 2,292 5.0 -7.1°
Enters shadow 05:26:16 - 197° (SSW) 3,185 5.7 -6.8°
